SCP
0 0 0 0 0 0 0 0 0 0 0 0 0 0 0 0 0 0 0 0 0 -0 -0 -0 -0 0 0 0 0 0 0 0 0 0 0 0 0 0 0 0 0 0 0 0
0 0 0 0 0 0 0 0 0 0 0 0 0 0 0 0 0 0 0 0 0 0 0 0 0 0 0 0 0 0 0 0 0 0 0 0 0 0 0 0 0 0 0 0
0 0 0 0 0 0 0 0 0 0 0 0 0 0 0 0 0 -0 0 0 0 0 0 0 0 0 0 0 0 0 0 0 0 0 0 0 0 0 0 0 0 0 0 0
0 0 0 0 0 0 0 0 0 0 0 0 0 0 -0 0 0 0 0 0 0 0 0 0 0 0 0 0 0 0 0 0 0 0 0 0 0 0 0 0 0 0 0 0
0 0 0 0 0 0 0 -0 0 0 0 0 0 0 0 0 0 -0 -0 0 0 0 0 0 0 0 0 0 0 0 0 0 0 0 0 0 0 0 0 0 0 0 0 0
0 0 0 -0 0 0 0 -0 0 0 0 0 0 0 0 0 0 -0 -0 -0 -0 0 0 0 0 0 0 0 0 0 0 0 0 0 0 0 0 0 0 0 0 0 0 0
0 0 -0 0 0 0 -0 0 0 0 0 0 0 0 -0 0 -0 -0 -0 -0 -0 -0 -0 0 0 0 0 0 0 0 0 0 0 0 0 0 0 0 0 0 0 0 0 0
0 -0 0 -0 -0 -0 0 0 0 0 0 0 0 0 -0 -0 -0 -0 -0 -0 -0 -0 -0 0 0 0 0 0 0 0 0 0 0 0 0 0 0 0 0 0 0 0 0 0
0 -0 0 -0 0 0 0 0 0 0 0 0 0 -0 0 0 0 -0 -0 0 0 0 0 -0 0 0 0 0 0 0 0 0 0 0 0 0 0 0 0 0 0 0 0 0
-0 0 0 -0 -0 0 0 0 0 0 0 0 0 -0 -0 0 -0 -0 0 -0 -0 -0 0 -0 0 0 0 0 0 0 0 0 0 0 0 0 0 0 0 0 0 0 0 0
0 0 0 -0 -0 0 0 0 0 0 0 0 0 0 -0 -0 -0 -0 -0 -0 -0 -0 -0 -0 0 0 0 0 0 0 0 0 0 0 0 0 0 0 0 0 0 0 0 0
0 0 0 0 0 0 0 0 0 0 0 0 0 -0 -0 -0 -0 -0 -0 -0 0 -0 -0 -0 0 0 0 -0 0 0 0 0 0 0 0 0 0 0 0 0 0 0 0 0
0 0 0 0 0 0 0 0 0 0 0 0 -0 -0 -0 -0 -0 -0 -0 0 0 0 -0 0 0 0 0 0 0 0 0 0 0 0 0 0 0 0 0 0 0 0 0 0
0 0 0 0 0 0 0 0 0 0 0 0 0 -0 -0 -0 -0 -0 0 0 -0 0 0 0 0 0 0 0 0 0 0 0 0 0 0 0 0 0 0 0 0 0 0 0
-0 0 0 0 0 0 0 0 0 0 0 0 0 -0 -0 0 0 -0 0 -0 -0 0 0 0 0 0 0 0 0 0 0 0 0 0 0 0 0 0 0 0 0 0 0 0
0 0 0 0 0 0 0 0 0 0 0 0 0 -0 -0 0 0 -0 -0 -0 -0 0 0 0 0 0 0 0 0 0 0 0 0 0 0 0 0 0 0 0 0 0 0 0
0 0 0 0 0 0 0 0 0 0 0 0 0 -0 -0 0 0 -0 -0 -0 -0 0 0 0 0 0 0 0 0 0 0 0 0 0 0 0 0 0 0 0 0 0 0 0
0 0 0 0 0 0 0 0 0 0 0 0 0 -0 -0 0 -0 0 -0 -0 -0 -0 0 0 0 0 0 0 0 0 0 0 0 0 0 0 0 0 0 0 0 0 0 0
0 0 0 0 0 0 0 -0 0 0 0 0 0 -0 -0 0 -0 -0 -0 -0 -0 -0 0 0 0 0 0 0 0 0 0 0 0 0 0 0 0 0 0 0 0 0 0 0
0 0 0 -0 0 0 -0 -0 0 0 0 0 0 0 -0 -0 -0 -0 -0 -0 -0 -0 -0 0 0 0 0 0 0 0 0 0 0 0 0 0 0 0 0 0 0 0 0 0
0 0 0 0 0 0 0 0 0 0 0 0 0 0 0 -0 -0 -0 -0 -0 -0 -0 -0 -0 0 0 0 0 0 0 0 0 0 0 0 0 0 0 0 0 0 0 0 0
0 0 0 0 0 0 0 0 0 0 0 0 0 0 0 -0 -0 -0 -0 -0 -0 -0 -0 -0 -0 0 0 0 0 0 0 0 0 0 0 0 0 0 0 0 0 0 0 0
0 0 0 0 0 0 0 0 0 0 0 0 0 0 0 -0 -0 -0 -0 -0 -0 -0 -0 -0 -0 0 0 0 0 0 0 0 0 0 0 0 0 0 0 0 0 0 0 0
0 0 0 0 0 0 0 0 0 0 0 0 0 0 0 -0 -0 -0 -0 -0 -0 -0 -0 -0 -0 -0 0 0 0 0 0 0 0 0 0 0 0 0 0 0 0 0 0 0
0 0 0 0 0 0 0 0 0 0 0 0 0 0 0 -0 -0 -0 -0 -0 -0 -0 -0 0 -0 -0 0 0 0 0 0 0 0 0 0 0 0 0 0 0 0 0 0 0
0 0 0 0 0 0 0 0 0 0 0 0 0 0 0 -0 -0 -0 -0 -0 0 -0 -0 0 0 0 -0 0 0 0 0 0 0 0 0 0 0 0 0 0 0 0 0 0
0 0 0 0 0 0 0 0 0 0 0 0 0 0 0 -0 -0 -0 -0 -0 0 0 0 0 0 0 0 0 0 0 0 0 0 0 0 0 0 0 0 0 0 0 0 0
Wind_Speed_500mb
39 37 33 26 35 30 28 36 32 30 26 21 23 23 33 41 42 45 46 48 49 43 30 23 26 28 26 24 26 22 23 20 20 19 20 26 28 32 35 35 36 46 37 36
34 30 29 30 34 36 35 35 37 37 34 29 15 26 31 33 35 39 38 49 46 35 26 20 23 24 25 24 27 23 28 17 24 24 26 29 27 30 27 32 37 36 34 39
17 7 15 24 33 35 31 30 24 29 30 14 18 23 28 26 31 36 33 44 39 36 28 22 27 25 27 32 29 27 28 25 24 23 25 33 41 44 42 36 39 34 36 37
12 14 16 5 3 6 17 25 21 25 21 13 21 26 33 12 26 34 36 42 43 35 32 29 37 34 34 33 26 23 29 29 21 25 42 42 38 37 37 37 37 36 36 39
7 15 23 16 11 6 7 19 22 25 11 16 23 30 26 14 29 31 35 34 39 38 34 40 44 44 39 34 22 22 28 31 27 41 35 38 37 33 31 33 34 34 37 37
10 11 10 16 10 3 7 18 19 13 12 12 18 17 16 39 38 31 29 30 29 29 36 42 41 43 45 34 25 23 26 30 49 40 38 39 34 33 31 33 37 40 40 44
21 15 14 3 12 7 9 7 13 4 7 14 15 21 32 30 28 27 28 27 20 26 36 46 52 45 38 32 28 21 26 36 48 41 42 37 36 36 41 45 45 45 49 50
18 22 24 19 17 9 9 1 7 10 11 19 24 28 31 31 30 30 31 29 24 30 42 53 54 58 41 29 28 24 21 29 40 46 45 43 40 45 47 48 52 53 59 55
15 14 1 26 12 14 14 14 11 13 16 24 31 34 37 36 31 31 33 32 26 33 52 64 68 63 56 32 26 34 29 40 55 55 44 43 48 54 55 53 57 62 68 72
9 22 26 23 26 21 17 17 16 16 20 24 32 39 43 33 30 33 33 30 28 41 51 71 87 75 62 35 34 34 30 53 51 54 49 50 56 57 57 59 71 75 74 74
18 26 8 28 34 23 17 21 22 17 17 22 29 35 30 29 30 28 29 25 41 40 63 83 80 89 44 41 43 45 52 61 59 53 54 60 60 61 63 74 79 80 77 73
13 29 27 4 6 11 7 10 14 13 14 18 21 24 26 27 26 28 30 28 43 54 70 80 91 71 16 39 59 55 69 59 61 62 63 63 61 61 67 75 74 72 68 64
29 8 4 4 8 7 4 4 3 4 9 15 18 21 25 29 30 31 28 27 40 55 73 85 92 34 24 55 59 63 63 68 68 68 65 63 67 74 74 63 67 60 59 56
27 14 14 13 8 11 10 6 4 7 8 12 16 18 23 26 28 27 28 32 39 54 76 83 88 32 33 53 56 69 74 74 69 71 69 73 75 77 76 70 65 59 47 52
34 32 22 6 17 12 12 11 11 11 10 12 15 19 24 27 28 29 30 35 34 52 69 73 83 56 44 46 56 69 74 72 69 63 69 76 76 71 71 69 65 65 65 56
31 31 29 20 16 13 13 15 18 14 10 11 15 20 25 25 24 26 31 36 36 47 61 68 79 70 24 56 52 62 69 68 66 70 70 77 80 77 76 71 74 74 69 62
34 35 33 32 27 17 13 13 14 12 7 6 12 17 24 25 24 25 32 35 32 38 49 57 78 69 27 47 55 66 68 64 64 74 81 82 78 80 74 73 75 74 66 58
35 37 36 30 24 18 11 8 11 11 8 5 13 15 21 24 27 27 31 38 38 40 37 48 72 69 24 35 53 59 64 62 67 83 86 87 83 77 73 74 73 69 62 56
22 19 20 21 9 14 15 13 15 14 11 10 15 13 19 19 25 25 26 39 44 41 38 41 58 61 39 8 33 55 55 59 69 78 83 85 79 72 70 71 72 68 63 59
29 28 24 19 17 18 18 17 19 14 11 9 12 12 13 19 21 22 21 28 38 31 30 30 42 63 57 22 32 49 55 65 79 80 81 85 76 70 66 68 70 64 63 55
30 30 28 24 18 14 14 15 18 19 13 11 7 9 12 17 18 17 18 22 36 36 28 25 30 61 54 45 15 20 40 65 75 84 82 77 68 63 62 67 67 64 61 53
16 18 20 19 14 10 9 11 10 11 10 5 5 10 11 12 14 14 18 26 31 34 31 24 19 28 51 49 22 22 41 57 72 75 85 74 65 60 66 68 68 64 61 56
12 16 20 22 19 20 18 15 12 9 4 2 6 9 11 10 10 11 12 23 29 34 33 29 20 23 43 40 31 15 30 46 64 75 72 67 59 58 67 67 68 65 62 58
20 25 27 27 25 21 14 8 4 1 2 5 8 9 11 9 9 12 15 21 25 31 34 33 24 12 17 40 38 24 27 41 61 77 68 65 60 52 57 63 65 65 60 58
22 24 24 21 16 11 9 4 1 5 7 8 8 6 6 7 7 13 18 24 24 26 29 27 21 14 9 24 34 31 17 36 45 52 59 61 62 51 49 55 59 62 62 58
11 9 8 9 7 6 8 9 7 8 10 6 6 5 3 7 11 16 19 21 24 25 29 25 16 11 4 5 16 24 24 19 39 42 47 51 52 51 48 51 56 59 59 60
5 6 8 10 13 15 15 14 12 9 11 10 6 8 6 8 12 15 17 19 22 24 28 22 13 5 2 4 9 11 13 15 20 39 43 44 47 49 50 52 53 57 58 58
Wind_Direction_500mb
269 272 276 260 262 250 241 247 259 282 295 304 302 319 321 327 335 334 338 329 327 324 311 298 288 291 290 294 302 302 259 252 238 212 191 182 188 190 190 189 188 178 182 183
271 261 263 266 264 256 254 243 256 270 278 270 290 315 317 329 339 330 339 340 335 341 347 326 308 302 303 301 302 299 271 251 245 218 218 207 196 197 187 190 176 178 179 180
277 268 280 267 256 245 256 256 251 256 258 1 318 302 314 325 333 330 343 345 340 353 343 347 344 321 311 300 299 287 281 249 244 228 207 190 180 179 185 186 177 179 179 183
276 296 251 31 37 327 278 282 256 251 275 308 290 301 302 314 323 331 344 341 342 339 340 343 346 343 326 313 294 274 280 242 229 221 189 168 157 163 166 171 176 180 183 188
258 257 266 249 232 245 276 284 243 247 278 277 289 302 278 331 339 323 328 331 329 332 323 331 330 330 327 313 292 270 275 231 211 167 164 168 169 170 170 176 176 179 183 187
211 260 273 71 123 90 321 265 176 155 227 297 310 296 336 339 331 325 329 331 322 329 326 330 332 316 317 311 273 289 274 223 188 183 178 176 174 168 169 170 161 161 160 174
232 247 278 178 152 144 248 55 133 220 289 308 307 320 316 319 324 322 324 327 319 329 331 331 325 330 321 305 276 279 274 208 192 186 183 181 169 167 164 164 163 162 164 160
233 244 250 160 153 230 58 52 208 251 303 307 310 314 317 319 317 314 319 321 315 329 330 326 326 330 326 306 267 250 262 216 200 191 180 177 170 164 163 163 157 156 156 148
204 211 162 198 249 234 274 288 242 271 309 316 314 315 319 314 312 311 318 319 315 326 332 322 324 328 318 281 264 234 224 202 197 184 178 178 173 168 162 166 160 151 149 144
182 240 227 233 247 260 270 266 264 285 299 309 311 316 316 315 313 316 321 326 326 332 324 324 328 328 318 279 221 215 207 190 197 178 179 178 175 173 167 165 159 150 149 148
237 263 269 249 244 256 270 268 259 263 292 305 314 319 325 322 322 326 329 332 339 333 330 329 326 327 311 236 196 192 193 191 177 176 179 175 176 173 166 160 157 156 157 155
230 246 226 12 180 199 284 234 235 268 298 313 318 330 336 332 330 329 331 333 337 337 339 333 331 337 245 198 177 176 188 186 177 177 177 172 169 162 165 162 160 161 160 160
258 288 240 133 182 169 182 199 227 261 314 319 330 336 334 329 327 328 333 338 341 341 346 339 342 24 162 162 168 180 184 177 178 174 173 168 162 160 156 155 162 163 166 163
228 224 234 222 233 213 201 206 267 270 294 318 333 340 337 339 341 343 344 346 342 349 352 348 5 48 158 170 173 182 181 178 178 174 170 166 165 162 163 157 153 152 154 151
226 226 251 218 209 209 200 226 274 276 264 303 327 333 336 344 345 343 348 348 350 0 358 355 17 37 167 186 179 180 175 176 174 173 168 168 165 158 155 153 153 149 146 147
224 224 223 217 210 217 236 251 260 262 257 298 324 330 335 343 346 345 350 360 360 3 4 3 10 29 82 184 185 184 179 176 176 169 170 167 161 160 159 160 156 152 153 154
223 219 226 229 229 229 243 260 239 234 234 305 330 331 335 344 350 355 353 2 3 10 13 7 7 29 82 171 180 183 178 176 179 169 164 162 164 165 167 164 161 158 159 157
223 232 237 230 220 224 229 241 224 216 220 293 334 335 338 346 353 356 357 358 13 22 21 11 6 27 77 170 182 179 178 179 178 169 167 167 169 169 168 167 166 162 158 155
205 198 176 188 223 237 246 259 233 218 223 284 322 324 339 347 355 358 2 5 13 18 24 19 7 24 51 134 191 181 178 176 173 170 174 172 171 172 171 171 167 166 160 159
222 225 235 237 249 248 244 244 228 215 223 264 308 319 342 342 360 4 8 6 13 13 24 19 13 12 35 54 182 176 171 174 170 170 173 174 174 174 175 173 170 168 163 162
219 223 225 231 232 217 226 223 221 225 237 261 259 305 334 342 354 10 14 6 3 15 29 27 20 9 27 33 98 161 184 177 178 177 179 174 178 178 176 173 172 170 166 164
167 170 171 171 161 160 169 176 178 170 167 200 285 315 335 346 350 354 358 7 356 3 18 30 29 24 17 42 54 159 180 180 178 177 173 175 178 177 173 173 173 172 170 166
152 153 151 144 142 139 131 131 145 147 169 293 314 316 327 340 347 347 338 353 359 0 8 19 32 38 11 36 44 115 171 183 181 173 175 176 174 174 172 174 176 177 174 170
118 127 139 145 143 140 138 145 130 54 325 321 317 317 320 337 350 347 343 347 353 353 355 8 24 53 34 13 42 58 153 171 177 173 180 179 178 173 177 179 180 182 179 176
107 118 125 130 129 144 156 155 7 326 322 320 323 325 317 323 332 327 335 335 343 350 352 353 13 27 65 23 18 49 82 166 162 174 180 180 184 178 182 185 187 186 185 183
100 117 146 168 184 226 253 269 268 269 289 302 307 306 302 317 329 328 329 333 339 344 348 345 353 12 60 109 12 33 54 115 168 171 179 182 184 187 190 191 191 190 191 191
276 265 270 268 264 263 263 257 250 253 269 272 251 272 272 308 333 343 345 343 340 343 348 342 335 331 35 170 155 16 40 76 119 179 179 184 192 198 197 195 194 194 194 195
Wind_Speed_850mb
39 37 33 26 35 30 28 36 32 30 26 21 23 23 33 41 42 45 46 48 49 43 30 23 26 28 26 24 26 22 23 20 20 19 20 26 28 32 35 35 36 46 37 36
34 30 29 30 34 36 35 35 37 37 34 29 15 26 31 33 35 39 38 49 46 35 26 20 23 24 25 24 27 23 28 17 24 24 26 29 27 30 27 32 37 36 34 39
17 7 15 24 33 35 31 30 24 29 30 14 18 23 28 26 31 36 33 44 39 36 28 22 27 25 27 32 29 27 28 25 24 23 25 33 41 44 42 36 39 34 36 37
12 14 16 5 3 6 17 25 21 25 21 13 21 26 33 12 26 34 36 42 43 35 32 29 37 34 34 33 26 23 29 29 21 25 42 42 38 37 37 37 37 36 36 39
7 15 23 16 11 6 7 19 22 25 11 16 23 30 26 14 29 31 35 34 39 38 34 40 44 44 39 34 22 22 28 31 27 41 35 38 37 33 31 33 34 34 37 37
10 11 10 16 10 3 7 18 19 13 12 12 18 17 16 39 38 31 29 30 29 29 36 42 41 43 45 34 25 23 26 30 49 40 38 39 34 33 31 33 37 40 40 44
21 15 14 3 12 7 9 7 13 4 7 14 15 21 32 30 28 27 28 27 20 26 36 46 52 45 38 32 28 21 26 36 48 41 42 37 36 36 41 45 45 45 49 50
18 22 24 19 17 9 9 1 7 10 11 19 24 28 31 31 30 30 31 29 24 30 42 53 54 58 41 29 28 24 21 29 40 46 45 43 40 45 47 48 52 53 59 55
15 14 1 26 12 14 14 14 11 13 16 24 31 34 37 36 31 31 33 32 26 33 52 64 68 63 56 32 26 34 29 40 55 55 44 43 48 54 55 53 57 62 68 72
9 22 26 23 26 21 17 17 16 16 20 24 32 39 43 33 30 33 33 30 28 41 51 71 87 75 62 35 34 34 30 53 51 54 49 50 56 57 57 59 71 75 74 74
18 26 8 28 34 23 17 21 22 17 17 22 29 35 30 29 30 28 29 25 41 40 63 83 80 89 44 41 43 45 52 61 59 53 54 60 60 61 63 74 79 80 77 73
13 29 27 4 6 11 7 10 14 13 14 18 21 24 26 27 26 28 30 28 43 54 70 80 91 71 16 39 59 55 69 59 61 62 63 63 61 61 67 75 74 72 68 64
29 8 4 4 8 7 4 4 3 4 9 15 18 21 25 29 30 31 28 27 40 55 73 85 92 34 24 55 59 63 63 68 68 68 65 63 67 74 74 63 67 60 59 56
27 14 14 13 8 11 10 6 4 7 8 12 16 18 23 26 28 27 28 32 39 54 76 83 88 32 33 53 56 69 74 74 69 71 69 73 75 77 76 70 65 59 47 52
34 32 22 6 17 12 12 11 11 11 10 12 15 19 24 27 28 29 30 35 34 52 69 73 83 56 44 46 56 69 74 72 69 63 69 76 76 71 71 69 65 65 65 56
31 31 29 20 16 13 13 15 18 14 10 11 15 20 25 25 24 26 31 36 36 47 61 68 79 70 24 56 52 62 69 68 66 70 70 77 80 77 76 71 74 74 69 62
34 35 33 32 27 17 13 13 14 12 7 6 12 17 24 25 24 25 32 35 32 38 49 57 78 69 27 47 55 66 68 64 64 74 81 82 78 80 74 73 75 74 66 58
35 37 36 30 24 18 11 8 11 11 8 5 13 15 21 24 27 27 31 38 38 40 37 48 72 69 24 35 53 59 64 62 67 83 86 87 83 77 73 74 73 69 62 56
22 19 20 21 9 14 15 13 15 14 11 10 15 13 19 19 25 25 26 39 44 41 38 41 58 61 39 8 33 55 55 59 69 78 83 85 79 72 70 71 72 68 63 59
29 28 24 19 17 18 18 17 19 14 11 9 12 12 13 19 21 22 21 28 38 31 30 30 42 63 57 22 32 49 55 65 79 80 81 85 76 70 66 68 70 64 63 55
30 30 28 24 18 14 14 15 18 19 13 11 7 9 12 17 18 17 18 22 36 36 28 25 30 61 54 45 15 20 40 65 75 84 82 77 68 63 62 67 67 64 61 53
16 18 20 19 14 10 9 11 10 11 10 5 5 10 11 12 14 14 18 26 31 34 31 24 19 28 51 49 22 22 41 57 72 75 85 74 65 60 66 68 68 64 61 56
12 16 20 22 19 20 18 15 12 9 4 2 6 9 11 10 10 11 12 23 29 34 33 29 20 23 43 40 31 15 30 46 64 75 72 67 59 58 67 67 68 65 62 58
20 25 27 27 25 21 14 8 4 1 2 5 8 9 11 9 9 12 15 21 25 31 34 33 24 12 17 40 38 24 27 41 61 77 68 65 60 52 57 63 65 65 60 58
22 24 24 21 16 11 9 4 1 5 7 8 8 6 6 7 7 13 18 24 24 26 29 27 21 14 9 24 34 31 17 36 45 52 59 61 62 51 49 55 59 62 62 58
11 9 8 9 7 6 8 9 7 8 10 6 6 5 3 7 11 16 19 21 24 25 29 25 16 11 4 5 16 24 24 19 39 42 47 51 52 51 48 51 56 59 59 60
5 6 8 10 13 15 15 14 12 9 11 10 6 8 6 8 12 15 17 19 22 24 28 22 13 5 2 4 9 11 13 15 20 39 43 44 47 49 50 52 53 57 58 58
Wind_Direction_850mb
269 272 276 260 262 250 241 247 259 282 295 304 302 319 321 327 335 334 338 329 327 324 311 298 288 291 290 294 302 302 259 252 238 212 191 182 188 190 190 189 188 178 182 183
271 261 263 266 264 256 254 243 256 270 278 270 290 315 317 329 339 330 339 340 335 341 347 326 308 302 303 301 302 299 271 251 245 218 218 207 196 197 187 190 176 178 179 180
277 268 280 267 256 245 256 256 251 256 258 1 318 302 314 325 333 330 343 345 340 353 343 347 344 321 311 300 299 287 281 249 244 228 207 190 180 179 185 186 177 179 179 183
276 296 251 31 37 327 278 282 256 251 275 308 290 301 302 314 323 331 344 341 342 339 340 343 346 343 326 313 294 274 280 242 229 221 189 168 157 163 166 171 176 180 183 188
258 257 266 249 232 245 276 284 243 247 278 277 289 302 278 331 339 323 328 331 329 332 323 331 330 330 327 313 292 270 275 231 211 167 164 168 169 170 170 176 176 179 183 187
211 260 273 71 123 90 321 265 176 155 227 297 310 296 336 339 331 325 329 331 322 329 326 330 332 316 317 311 273 289 274 223 188 183 178 176 174 168 169 170 161 161 160 174
232 247 278 178 152 144 248 55 133 220 289 308 307 320 316 319 324 322 324 327 319 329 331 331 325 330 321 305 276 279 274 208 192 186 183 181 169 167 164 164 163 162 164 160
233 244 250 160 153 230 58 52 208 251 303 307 310 314 317 319 317 314 319 321 315 329 330 326 326 330 326 306 267 250 262 216 200 191 180 177 170 164 163 163 157 156 156 148
204 211 162 198 249 234 274 288 242 271 309 316 314 315 319 314 312 311 318 319 315 326 332 322 324 328 318 281 264 234 224 202 197 184 178 178 173 168 162 166 160 151 149 144
182 240 227 233 247 260 270 266 264 285 299 309 311 316 316 315 313 316 321 326 326 332 324 324 328 328 318 279 221 215 207 190 197 178 179 178 175 173 167 165 159 150 149 148
237 263 269 249 244 256 270 268 259 263 292 305 314 319 325 322 322 326 329 332 339 333 330 329 326 327 311 236 196 192 193 191 177 176 179 175 176 173 166 160 157 156 157 155
230 246 226 12 180 199 284 234 235 268 298 313 318 330 336 332 330 329 331 333 337 337 339 333 331 337 245 198 177 176 188 186 177 177 177 172 169 162 165 162 160 161 160 160
258 288 240 133 182 169 182 199 227 261 314 319 330 336 334 329 327 328 333 338 341 341 346 339 342 24 162 162 168 180 184 177 178 174 173 168 162 160 156 155 162 163 166 163
228 224 234 222 233 213 201 206 267 270 294 318 333 340 337 339 341 343 344 346 342 349 352 348 5 48 158 170 173 182 181 178 178 174 170 166 165 162 163 157 153 152 154 151
226 226 251 218 209 209 200 226 274 276 264 303 327 333 336 344 345 343 348 348 350 0 358 355 17 37 167 186 179 180 175 176 174 173 168 168 165 158 155 153 153 149 146 147
224 224 223 217 210 217 236 251 260 262 257 298 324 330 335 343 346 345 350 360 360 3 4 3 10 29 82 184 185 184 179 176 176 169 170 167 161 160 159 160 156 152 153 154
223 219 226 229 229 229 243 260 239 234 234 305 330 331 335 344 350 355 353 2 3 10 13 7 7 29 82 171 180 183 178 176 179 169 164 162 164 165 167 164 161 158 159 157
223 232 237 230 220 224 229 241 224 216 220 293 334 335 338 346 353 356 357 358 13 22 21 11 6 27 77 170 182 179 178 179 178 169 167 167 169 169 168 167 166 162 158 155
205 198 176 188 223 237 246 259 233 218 223 284 322 324 339 347 355 358 2 5 13 18 24 19 7 24 51 134 191 181 178 176 173 170 174 172 171 172 171 171 167 166 160 159
222 225 235 237 249 248 244 244 228 215 223 264 308 319 342 342 360 4 8 6 13 13 24 19 13 12 35 54 182 176 171 174 170 170 173 174 174 174 175 173 170 168 163 162
219 223 225 231 232 217 226 223 221 225 237 261 259 305 334 342 354 10 14 6 3 15 29 27 20 9 27 33 98 161 184 177 178 177 179 174 178 178 176 173 172 170 166 164
167 170 171 171 161 160 169 176 178 170 167 200 285 315 335 346 350 354 358 7 356 3 18 30 29 24 17 42 54 159 180 180 178 177 173 175 178 177 173 173 173 172 170 166
152 153 151 144 142 139 131 131 145 147 169 293 314 316 327 340 347 347 338 353 359 0 8 19 32 38 11 36 44 115 171 183 181 173 175 176 174 174 172 174 176 177 174 170
118 127 139 145 143 140 138 145 130 54 325 321 317 317 320 337 350 347 343 347 353 353 355 8 24 53 34 13 42 58 153 171 177 173 180 179 178 173 177 179 180 182 179 176
107 118 125 130 129 144 156 155 7 326 322 320 323 325 317 323 332 327 335 335 343 350 352 353 13 27 65 23 18 49 82 166 162 174 180 180 184 178 182 185 187 186 185 183
100 117 146 168 184 226 253 269 268 269 289 302 307 306 302 317 329 328 329 333 339 344 348 345 353 12 60 109 12 33 54 115 168 171 179 182 184 187 190 191 191 190 191 191
276 265 270 268 264 263 263 257 250 253 269 272 251 272 272 308 333 343 345 343 340 343 348 342 335 331 35 170 155 16 40 76 119 179 179 184 192 198 197 195 194 194 194 195